Regional Weather Roundup
Issued by NWS

Home | Current Version | Previous Version | Text Only | Print | Product List | Glossary Off
Versions: 1 2 3 4 5 6 7 8 9 10 11 12 13 14 15 16 17 18 19 20 21 22 23 24 25 26 27 28 29 30 31 32 33 34 35 36 37 38 39 40 41 42 43 44 45 46 47 48 49 50

000
ASUS43 KIND 121859
RWRIN

WEATHER ROUNDUP FOR INDIANA
NATIONAL WEATHER SERVICE INDIANAPOLIS IN
200 PM EST FRI FEB 12 2016

NOTE: "FAIR" INDICATES FEW OR NO CLOUDS BELOW 12,000 FEET WITH NO
SIGNIFICANT WEATHER AND/OR OBSTRUCTIONS TO VISIBILITY.

* - STATION DOES NOT REPORT WEATHER SUCH AS PRECIPITATION OR FOG.

+ - STATION NOT QUALITY CONTROLLED BY THE NATIONAL WEATHER SERVICE.
    USE DATA WITH CAUTION...ESPECIALLY DEWPOINT AND RELATIVE
    HUMIDITY OBSERVATIONS.

INZ001>003-010>013-019-020-122000-
NORTHWEST INDIANA

CITY           SKY/WX    TMP DP  RH WIND       PRES   REMARKS
GARY /AIRPORT/ MOSUNNY   25   7  46 NW17G30   30.14F WCI  11
RENSSELAER +   CLOUDY    25  12  58 W23G29    30.14S WCI  10

$$

LMZ046-743>745-122000-
SOUTHERN LAKE MICHIGAN

STATION/POSITION TIME  TEMP    WIND        PRES    WAVE
                       AIR SEA DIR/SP/G            HT
                 (UTC) (F)     (DEG/KT/KT) (MB)    (FT)
BURNS HARBOR     1800   21     300/ 17/ 23 1020.7S
MICHIGAN CITY    1800   21     270/ 24/ 27   N/A

$$

INZ004-005-014>016-021>024-122000-
NORTH CENTRAL INDIANA

CITY           SKY/WX    TMP DP  RH WIND       PRES   REMARKS
ELKHART        LGT SNOW  21  12  68 NW14G23   30.08R WCI   8
GOSHEN         SNOW      21  17  84 W17       30.05S VSB 1/2 WCI   7
SOUTH BEND     LGT SNOW  19  10  68 NW18G30   30.09S WCI   4

$$

INZ006>009-017-018-025>027-122000-
NORTHEAST INDIANA

CITY           SKY/WX    TMP DP  RH WIND       PRES   REMARKS
ANGOLA *+      CLOUDY    21  16  79 W14       29.99F WCI   8
FORT WAYNE     LGT SNOW  23  16  74 W21       30.05F WCI   8

$$

INZ028-029-035-036-043>045-051>053-122000-
WEST CENTRAL INDIANA

CITY           SKY/WX    TMP DP  RH WIND       PRES   REMARKS
GREENCASTLE +  FLURRIES  25  14  63 W9G17     30.15F WCI  15
LAFAYETTE      LGT SNOW  25  18  74 W18G24    30.14F WCI  11
TERRE HAUTE    CLOUDY    27  19  72 W10       30.19F WCI  17

$$

INZ030>032-037>040-046>048-054>057-064-065-122000-
CENTRAL INDIANA

CITY           SKY/WX    TMP DP  RH WIND       PRES   REMARKS
COLUMBUS       CLOUDY    28  18  64 W12       30.14F WCI  18
GREENWOOD *+   CLOUDY    27  19  74 W14G22    30.13F WCI  15
INDIANAPOLIS   FLURRIES  25  16  68 W18       30.12F WCI  11
-EAGLE CREEK   FLURRIES  25  17  72 W16G24    30.12F WCI  12
KOKOMO *+      CLOUDY    25  18  74 W20G26    30.09F WCI  11
MT COMFORT *+  CLOUDY    27  16  63 W16       30.10F WCI  14
SHELBYVILLE    CLOUDY    28  17  63 W14       30.11F WCI  17

$$

INZ033-034-041-042-049-050-058-059-122000-
EAST CENTRAL INDIANA

CITY           SKY/WX    TMP DP  RH WIND       PRES   REMARKS
MUNCIE         FLURRIES  25  15  66 W15       30.08S WCI  13

$$

INZ060-061-067>069-081>083-085>088-122000-
SOUTHWEST INDIANA

CITY           SKY/WX    TMP DP  RH WIND       PRES   REMARKS
EVANSVILLE     CLOUDY    32  23  69 NW12G17   30.23F WCI  23
HUNTINGBURG *+ CLOUDY    32  21  64 W14       30.20S WCI  22

$$

INZ062-063-066-070>080-084-089>092-122000-
SOUTH CENTRAL AND SOUTHEAST INDIANA

CITY           SKY/WX    TMP DP  RH WIND       PRES   REMARKS
BLOOMINGTON    CLOUDY    26  18  71 W10G20    30.15F WCI  16
MADISON *+     CLOUDY    30  19  64 W10G16    30.15S WCI  21
SEYMOUR +      CLOUDY    32  18  55 NW9       30.14F WCI  24

$$




USA.gov is the U.S. government's official web portal to all federal, state and local government web resources and services.